[Iaude] MPEC C67: 2024 BD7 [a=1.41,e=0.41,i=4.3,H=22.0,PHA]

mpec at cfa.harvard.edu mpec at cfa.harvard.edu
Tue Feb 6 17:03:23 EST 2024


M.P.E.C. 2024-C67                              Issued 2024 February 6, 22:01 UT

     The Minor Planet Electronic Circulars contain information on unusual
         minor planets, routine data on comets and natural satellites,
         and occasional editorial announcements.  They are published
    on behalf of Division F of the International Astronomical Union by the
          Minor Planet Center, Smithsonian Astrophysical Observatory,
                          Cambridge, MA 02138, U.S.A.
			  
             Prepared using the Tamkin Foundation Computer Network

                              MPC at CFA.HARVARD.EDU
            URL https://www.minorplanetcenter.net/    ISSN 1523-6714

                                    2024 BD7                                    


Observations:
     K24B07D* C2024 01 21.53572310 02 17.532-02 34 10.92         22.04wXEC067F51
     K24B07D  C2024 01 21.54843810 02 17.400-02 34 22.02         22.06wXEC067F51
     K24B07D  C2024 01 21.56112410 02 17.301-02 34 32.69         21.82wXEC067F51
     K24B07D  C2024 01 21.57379410 02 17.185-02 34 43.58         22.27wXEC067F51
     K24B07D 1C2024 02 05.33587709 56 16.645-06 17 26.23         19.98GVEC067G96
     K24B07D 1C2024 02 05.34104009 56 16.318-06 17 31.06         19.69GVEC067G96
     K24B07D 1C2024 02 05.34620209 56 15.979-06 17 36.38         20.26GVEC067G96
     K24B07D 1C2024 02 05.35137209 56 15.655-06 17 41.06         20.36GVEC067G96
     K24B07D KC2024 02 05.46799209 56 08.430-06 19 33.06         20.81GVEC067I52
     K24B07D KC2024 02 05.47099609 56 08.196-06 19 35.80         20.34GVEC067I52
     K24B07D KC2024 02 05.47409609 56 08.012-06 19 38.32         21.32GVEC067I52
     K24B07D KC2024 02 05.47678709 56 07.789-06 19 41.59         20.79GVEC067I52
     K24B07D  C2024 02 06.09334009 55 37.21 -06 29 06.0                WEC067X09
     K24B07D  C2024 02 06.10728409 55 36.32 -06 29 20.0                WEC067X09
     K24B07D  C2024 02 06.43571209 55 16.891-06 35 08.87         20.36wXEC067F52
     K24B07D  C2024 02 06.44620809 55 16.164-06 35 19.15         20.53wXEC067F52
     K24B07D  C2024 02 06.45666409 55 15.429-06 35 29.35         20.41wXEC067F52
     K24B07D  C2024 02 06.46719309 55 14.702-06 35 39.74         20.49wXEC067F52

Observer details:
F51 Pan-STARRS 1, Haleakala.  Observers J. Herman, T. Lowe, P. Minguez, A.
    Schultz, I. Smith.  Measurers K. Chambers, T. de Boer, J. Fairlamb, H.
    Gao, M. Huber, C.-C. Lin, E. Magnier, Y. Ramanjooloo, R. Wainscoat, R.
    Weryk.  1.8-m Ritchey-Chretien + CCD.
F52 Pan-STARRS 2, Haleakala.  Observers J. Herman, T. Lowe, P. Minguez, A.
    Schultz, I. Smith.  Measurers K. Chambers, T. de Boer, J. Fairlamb, H.
    Gao, M. Huber, C.-C. Lin, E. Magnier, Y. Ramanjooloo, R. Wainscoat, R.
    Weryk.  1.8-m Ritchey-Chretien + CCD.
G96 Mt. Lemmon Survey.  Observers V. F. Carvajal, D. Rankin.  Measurers T.
    Beuden, V. F. Carvajal, D. Fay, J. B. Fazekas, D. C. Fuls, A. R. Gibbs, A.
    D. Grauer, H. Groeller, J. K. Hogan, R. A. Kowalski, S. M. Larson, G. J.
    Leonard, D. Rankin, R. L. Seaman, F. C. Shelly, K. W. Wierzchos.  1.5-m
    reflector + 10K CCD.
I52 Steward Observatory, Mt. Lemmon Station.  Observer H. Groeller.  Measurers
    E. C. Beshore, D. Fay, J. B. Fazekas, D. C. Fuls, A. R. Gibbs, A. D.
    Grauer, H. Groeller, J. K. Hogan, R. A. Kowalski, S. M. Larson, G. J.
    Leonard, D. Rankin, R. L. Seaman, F. C. Shelly, K. W. Wierzchos.  1.0-m
    prime focus + CCD.
X09 Deep Random Survey, Rio Hurtado.  Observers A. Schnabel, D. Ruhela.
    Measurer S. Deen.  0.43-m reflector + CMOS.

Orbital elements:
2024 BD7                                            PHA, Earth MOID = 0.0393 AU
Epoch 2023 Sept. 13.0 TT = JDT 2460200.5                Bell                    
M 223.36492              (2000.0)            P               Q                  
n   0.58838875     Peri.   31.05684     -0.53737836     +0.84268543             
a   1.4104569      Node   206.48132     -0.78824825     -0.51590019             
e   0.4082589      Incl.    4.27676     -0.29981528     -0.15403982             
P   1.68           H   22.01          G   0.15           U   8                  
Residuals in seconds of arc
240121 F51  0.0   0.1+    240205 G96  0.2-  0.2-    240206 X09  0.6+  0.4+
240121 F51  0.2-  0.1-    240205 G96  0.1-  0.1+    240206 X09  0.5+  0.2+
240121 F51  0.1+  0.1+    240205 I52  0.9+  0.1-    240206 F52  0.1-  0.0
240121 F51  0.1+  0.0     240205 I52  0.2+  0.1+    240206 F52  0.0   0.0
240205 G96  0.0   0.1-    240205 I52  0.3+  0.5+    240206 F52  0.1-  0.0
240205 G96  0.0   0.1+    240205 I52  0.6-  0.2-    240206 F52  0.0   0.0

Ephemeris:
2024 BD7                 a,e,i = 1.41, 0.41, 4                   q = 0.8346
Date    TT    R. A. (2000) Decl.     Delta      r    Elong.  Phase     V
2024 01 07    09 58 16.9 +00 46 40   0.5608  1.4281   133.4    30.0    22.8
...
2024 01 22    10 02 16.9 -02 40 40   0.4068  1.3378   145.0    25.0    21.8
...
2024 01 30    10 00 24.3 -04 38 22   0.3345  1.2878   151.0    21.8    21.2
...
2024 02 05    09 56 33.8 -06 11 43   0.2847  1.2495   154.9    19.5    20.8
2024 02 06    09 55 41.0 -06 27 49   0.2768  1.2431   155.5    19.2    20.7
2024 02 07    09 54 43.5 -06 44 06   0.2690  1.2367   156.0    19.0    20.6
...
2024 02 13    09 47 13.1 -08 26 42   0.2243  1.1979   157.8    18.1    20.1
...
2024 02 21    09 31 13.1 -11 05 02   0.1705  1.1461   155.5    20.9    19.5
...
2024 03 07    08 18 17.7 -19 16 12   0.08575 1.0506   131.0    45.5    18.5

M. P. C. Staff               (C) Copyright 2024 MPC           M.P.E.C. 2024-C67





More information about the Iaude mailing list